Погода Новая Ладога

Погода Новая Ладога : погода сейчас, прогноз погоды и архив. Всё, что Вы хотите узнать о погоде Новая Ладога!

Хотите узнать прогноз погоды Новая Ладога? Тогда Вам сюда: Погода Новая Ладога

Поиск расширенной информации на нашем сайте:

Другие новости

Новости СМИ2

Главная страница сайта

Новости сайта

03.07.2017

Напоминаем, что на нашем специализированном сайте Метеоцентр.Азия вы можете получить высокодетализированные автоматические прогнозы погоды по пунктам России, СНГ и мира в авиационном формате (включающие направление и скорость ветра, видимость, явления погоды, количество и форму облачности, нижнюю и верхнюю границу облачности).


Погода Новая Ладога - сегодня

Время (UTC), дата Ветер
(°,м/с) 
Видим.   Явления Облачность Т
(°С)
Тd
(°С)
f(%) Тe
(°С)
Pmin
(гПа)
dP
(гПа)
Po
(мм)
O2
(г/м3)
Тmin Tmax R s Состояние
почвы
15 17.10.17 260 (З) 4{11}  20000 м    9/0 средняя 
[Ac As]
+8.8 +5.4 79 +8  1008  -0.9  755  294           
18 17.10.17 220 (ЮЗ) 20000 м    10/10 1500 м 
[Sc]
+8.2 +5.6 84 +8  1005.3  -2.6  753  294    +10.3       
21 17.10.17 160 (Ю) 10 км  слаб. ливневой дождь  10/10 270 м кучево-дожд. 
[Cb cap]
+6.7 +6.2 97 +7  1001  -4.3  750  294           
00 18.10.17 230 (ЮЗ) 10 км  слаб. дождь{ливн. осадки}  10/10 300 м 
[Frnb|Ns]
+9.1 +8.9 99 +9  997.2  -3.8  747  290           
03 18.10.17 260 (З) 5{10}  10 км  слаб. дождь  10/10 400 м 
[Frnb|Ns]
+10.6 +10 96 +10  995.5  -1.7  746  287  +6.7       
06 18.10.17 250 (З) 3{10}  10 км  слаб. дождь  10/10 480 м 
[Ns]
+10.4 +9.8 96 +11  994.4  -1.1  745  287  +6.7       
09 18.10.17 290 (З) 3{10}  10 км  слаб. дождь  10/10 480 м 
[Ns]
+9.7 +9 95 +9  994.2  -0.1  745  288           
12 18.10.17 340 (С) 20000 м  слаб. дождь  10/10 700 м 
[Ns]
+6.4 +4.9 90 +5  997.5  3.2  747  293           
15 18.10.17 290 (З) 4{10}  20000 м  {дождь}  9/8 600 м кучево-дожд., средняя 
[Cb cap|Ac cuf]
+5.7 +4.6 93 +4  1000.8  3.2  750  295         
18 18.10.17 280 (З) 4{11}  20000 м  {ливн. осадки, дождь}  10/10 1260 м 
[Sc]
+6.3 +4.5 88 +5  1002.8  751  295    +10.4     
21 18.10.17 290 (З) 4{10}  20000 м    10/10 720 м 
[Sc]
+6.1 +4 86 +5  1004.4  1.7  753  296           
00 19.10.17 280 (З) 20000 м    9/9 1380 м 
[Sc]
+5.2 +3.6 89 +4  1005.8  1.3  754  297           
03 19.10.17 300 (СЗ) 10 км  слаб. ливневой дождь  9/9 700 м кучево-дожд. 
[Cb cap]
+5.2 +3.3 88 +3  1007.7  1.9  755  298  +4.7    0.7     
06 19.10.17 320 (СЗ) 4{10}  20000 м  {ливн. осадки}  8/6 1140 м кучево-дожд., средняя 
[Cb cap|Ac cuf]
+5.6 +3.4 86 +4  1009.6  756  298  +4.4       
09 19.10.17 320 (СЗ) 10 км  слаб. ливневой дождь  9/8 540 м кучево-дожд., средняя 
[Cb cap|Ac cuf]
+5 +3.6 91 +3  1012.1  2.4  758  299           
12 19.10.17 330 (СЗ) 4{10}  20000 м  {ливн. осадки}  10/8 570 м кучево-дожд., средняя 
[Cb cap|Ac cuf]
+5.6 +3.8 88 +4  1014.2  2.1  760  299           
15 19.10.17 330 (СЗ) 20000 м  в посл. час ливневой дождь  9/8 660 м кучево-дожд., средняя 
[Cb cap|Ac cuf]
+5.1 +3.6 90 +4  1015.6  1.4  761  300         
18 19.10.17 270 (З) 20000 м  в посл. час ливневой дождь  9/9 570 м кучево-дожд. 
[Cb cap]
+3.9 +3.2 95 +3  1017.1  1.4  762  302    +5.9     
21 19.10.17 250 (З) 20000 м    9/9 600 м кучево-дожд. 
[Cb cap]
+3.3 +2.8 97 +4  1018.4  1.3  763  303           
00 20.10.17 280 (З) 10 км  слаб. ливневой дождь  10/10 300 м кучево-дожд. 
[Cb cap]
+3.2 +2.4 94 +3  1019  0.6  763  304           
03 20.10.17 320 (СЗ) 20000 м  в посл. час ливневой дождь  9/6 960 м кучево-дожд., средняя 
[Cb cap|Ac cuf]
+3.2 +2.8 97 +3  1019.7  0.7  764  304  +2.8       
06 20.10.17 270 (З) 20000 м  {ливн. осадки}  9/3 600 м кучево-дожд., средняя 
[Cb cap|Ac cuf]
+3.3 +2.7 96 +4  1020.4  0.6  764  304  +2.5       
09 20.10.17 330 (СЗ) 20000 м  в посл. час ливневой дождь  9/4 600 м кучево-дожд., средняя 
[Cb cap|Ac cuf]
+5 +1.9 80 +5  1021.1  0.7  765  302           
12 20.10.17 340 (С) 20000 м  {ливн. осадки}  9/4 600 м кучево-дожд., средняя 
[Cb cap|Ac cuf]
+4.4 +0.3 75 +4  1021.6  0.5  765  303           
15 20.10.17 350 (С) 20000 м    9/0 средняя 
[Ac As]
+3.9 -0.7 72 +3  1021.9  0.4  766  304      0.5     
Время (UTC), дата Ветер
(°,м/с) 
Видим.   Явления Облачность Т
(°С)
Тd
(°С)
f(%) Тe
(°С)
Pmin
(гПа)
dP
(гПа)
Po
(мм)
O2
(г/м3)
Тmin Tmax R s Состояние
почвы

Для получения пояснительной информации подведите курсор к названию столбца.

ПОГОДА Новая Ладога - архив

Всё, что Вы хотите узнать о погоде Новая Ладога - удобно и подробно!

Выберите нужную дату (начиная с 1 января 2015* года) и нажмите кнопку "Найти".
Будут отображены архивные сводки погоды по пункту Новая Ладога, начиная с указанной даты.


Отображать данные в формате CSV (для использования в таблицах Excel)


Внимание! Наш архив погоды предназначен исключительно для личного некоммерческого использования в познавательных целях. Если Вам необходимы официальные справки о состоянии погоды (для производственных, юридических, коммерческих и т.п. целей), обращайтесь в органы Росгидромета.

*Примечание: данная дата относится к архиву по метеостанциям СССР (Россия, СНГ, Балтия).
Архив по метеостанциям Зарубежной Европы и Азии (кроме Китая) хранится 10 дней, по другим регионам земного шара (Китай, Африка, Америка, Австралия, Океания) - 1 день.

Новая Ладога - район местоположения метеостанции


Название, широта, долгота, высота метеостанции:
Новая Ладога 60.1°ш. 32.3°д. 9 м над ур. моря [Российская Федерация]

Дополнительная информация

В oтличие oт бoльшинства пoгoдных сайтoв мы публикуем пoдрoбную метеoинфoрмацию в детальнoм прoфессиoнальнoм фoрмате.

Характеристики температуры и влажнoсти вoздуха измеряются на высoте 2 м в тени вдали oт зданий и деревьев.
Скoрoсть ветра измеряется на высoте 10 м (на урoвне рoста челoвека скoрoсть ветра ниже в 1.5-2 раза). Если метеoстанция нахoдится в гoрoде или в лесу, тo скoрoсть ветра занижена на 2-4 м/с пo сравнению с oткрытым местoм. Скoрoсть ветра над акватoриями крупных рек и oзёр, а также на вершинах хoлмoв на 2-5 м/с выше, чем в oбычных услoвиях.
Атмoсфернoе давление в разных тoчках местнoсти мoжет значительнo oтличаться oт давления на метеoстанции, в зависимoсти oт услoвий рельефа (при пoдъёме на 10 м давление пoнижается примернo на 1 мм рт.ст.).